Regional Weather Roundup
Issued by NWS

Home | Current Version | Previous Version | Graphics & Text | Print | Product List | Glossary Off
Versions: 1 2 3 4 5 6 7 8 9 10 11 12 13 14 15 16 17 18 19 20 21 22 23 24 25 26 27 28 29 30 31 32 33 34 35 36 37 38 39 40 41 42 43 44 45 46 47 48 49 50

000
ASUS43 KDMX 261606
RWRIA

WEATHER ROUNDUP FOR IOWA
NATIONAL WEATHER SERVICE DES MOINES IA
1100 AM CDT FRI MAY 26 2017

NOTE: "FAIR" INDICATES FEW OR NO CLOUDS BELOW 12,000 FEET WITH NO
SIGNIFICANT WEATHER AND/OR OBSTRUCTIONS TO VISIBILITY.

* - THESE STATIONS ARE NOT NWS STATIONS...THUS NOT UNDER NWS
QUALITY CONTROL.  THEY ALSO DO NOT REPORT WEATHER SUCH
AS PRECIPITATION OR FOG.

IAZ001>003-012>014-020>022-031>034-043>046-261700-
   NORTHWEST IOWA

CITY           SKY/WX    TMP DP  RH WIND       PRES   REMARKS
CARROLL *      CLOUDY    70  59  68 W6        29.75S
CHEROKEE *     MOSUNNY   68  58  71 N9        29.77R
DENISON *      MOSUNNY   70  57  64 NW9       29.78R
LE MARS *      CLOUDY    64  52  63 NW14      29.80S
ORANGE CITY *  MOSUNNY   64  52  63 N8G17     29.79R
SHELDON *      CLOUDY    66  50  55 NW15      29.77R
SIOUX CITY     CLOUDY    63  51  65 NW17      29.80R
SPENCER        CLOUDY    70  57  63 NW5       29.76S
STORM LAKE *   CLOUDY    68  55  64 NW12      29.77S
$$

IAZ055>058-069>071-079>083-090>094-261700-
   SOUTHWEST IOWA

CITY           SKY/WX    TMP DP  RH WIND       PRES   REMARKS
ATLANTIC *     SUNNY     72  59  64 N6        29.75S
AUDUBON *      CLOUDY    72  61  68 N7        29.76S
CLARINDA *     SUNNY     73  61  64 NW8       29.78R
COUNCIL BLFS * MOSUNNY   72  59  64 NW15      29.77R
CRESTON *      MOSUNNY   70  61  73 VRB7      29.77R
HARLAN  *      MOSUNNY   72  59  64 NW13G18   29.79S
LAMONI         SUNNY     73  63  70 VRB7      29.74R
RED OAK *      SUNNY     73  61  64 N8        29.76R
SHENANDOAH *   SUNNY     75  59  57 N9        29.76R
$$

IAZ047>049-059>061-072>074-084-261700-
   CENTRAL IOWA

CITY           SKY/WX    TMP DP  RH WIND       PRES   REMARKS
AMES           CLOUDY    65  57  75 S3        29.75S
ANKENY *       PTSUNNY   66  59  77 VRB3      29.76R
BOONE *        PTSUNNY   66  57  72 CALM      29.75R
CHARITON *     CLOUDY    66  61  82 N5        29.73S
DES MOINES     CLOUDY    69  60  73 N8        29.73S
GRINNELL*      CLOUDY    58  56  94 CALM      29.75F
KNOXVILLE *    CLOUDY    64  59  82 CALM      29.72S
MARSHALLTOWN   PTSUNNY   62  58  86 S6        29.75S
NEWTON *       CLOUDY    61  57  88 VRB3      29.74R
PERRY *          N/A     67  58  72 CALM      29.75R
$$

IAZ004>006-015-016-023>025-035-036-261700-
   NORTH CENTRAL IOWA

CITY           SKY/WX    TMP DP  RH WIND       PRES   REMARKS
ALGONA *       MOSUNNY   66  55  68 SW8       29.76S
CLARION *      CLOUDY    66  57  72 SW5       29.76R
ESTHERVILLE    CLOUDY    64  58  80 SW7       29.75S
FORT DODGE *   CLOUDY    63  55  77 CALM      29.77R
MASON CITY     CLOUDY    65  56  72 S6        29.78S
FOREST CITY *    N/A     68  50  52 S5        29.77R
WEBSTER CITY * CLOUDY    68  55  64 S6        29.74R
$$

IAZ007>011-017>019-026>030-037>042-050>054-066-261700-
   NORTHEAST IOWA

CITY           SKY/WX    TMP DP  RH WIND       PRES   REMARKS
CEDAR RAPIDS   HVY RAIN  58  58 100 SE8       29.76F FOG
CHARLES CITY * CLOUDY    63  59  88 SE10      29.77F
CLINTON *      PTSUNNY   68  58  70 SE16      29.76F
DUBUQUE        LGT RAIN  63  56  78 SE6       29.78S
MONTICELLO *   LGT RAIN  63  59  88 CALM      29.77S
OELWEIN *      CLOUDY    61  59  94 S9        29.79S
WATERLOO       CLOUDY    63  55  75 SE8       29.76F
$$

IAZ064-065-067-068-078-261700-
   EAST CENTRAL IOWA

CITY           SKY/WX    TMP DP  RH WIND       PRES   REMARKS
DAVENPORT      CLOUDY    67  56  67 SE15      29.75S
IOWA CITY      HVY RAIN  61  57  87 NE3       29.78R FOG
MT. PLEASANT * CLOUDY    65  57  76 W8        29.76R
MUSCATINE *    LGT RAIN  64  57  77 W10       29.78R
QUAD CITIES    CLOUDY    71  54  54 SE12      29.74R
$$

IAZ062-063-075>077-085>089-095>099-261700-
   SOUTHEAST IOWA

CITY           SKY/WX    TMP DP  RH WIND       PRES   REMARKS
BURLINGTON     CLOUDY    66  59  78 E5        29.73F
FAIRFIELD *    CLOUDY    59  59 100 NE5       29.74F FOG
FORT MADISON * CLOUDY    68  61  77 CALM      29.75R
KEOKUK *       PTSUNNY   70  63  78 CALM      29.72S
OSKALOOSA *    LGT RAIN  59  58  97 E6        29.75R
CENTERVILLE *    N/A     68  63  83 CALM      29.76R
OTTUMWA        LGT RAIN  60  60 100 E8        29.72F
WASHINGTON *   LGT RAIN  59  59 100 CALM      29.77S
$$

ABBREVIATIONS USED IN REMARKS
   TC - TEMPERATURES IN CELSIUS
  WCI - WIND CHILL INDEX
   HX - HEAT INDEX
  VSB - VISIBILITY
$$




USA.gov is the U.S. government's official web portal to all federal, state and local government web resources and services.